Погода в Корысти

Украина / Ровненская область     50°36′06″N   26°59′51″E
темп.,
°C
ветер,
м/с
пор.,
м/с
влажн.,
%
обл.,
%
осадки,
мм/ч
давл.,
гПа
погр.,
м
14 апреля, ср
ср1400:00+9зюз1284100 0.0 1016118
03:00+8сз2288100 0.0 1014150
06:00+7ссз2288100 0.1 1014129
09:00+7зюз2292100 0.9 1014173
12:00+7з1192100 2.3 1014149
15:00+8с2289100 2.8 1013212
18:00+8с3489100 0.1 1013244
21:00+7ссз3594100 0.3 1014199
15 апреля, чт
чт1500:00+7ссз3697100 0.2 1014229
03:00+7ссз369898 0.3 1014291
06:00+6сз469799 0.0 1014257
09:00+6сз4595100 0.3 1015309
12:00+6сз5692100 0.3 1015412
15:00+7сз6788100 0.3 1015486
18:00+6зсз6887100 0.0 1014532
21:00+5зсз61190100 0.0 1014420
16 апреля, пт
пт1600:00+4зсз61194100 0.0 1014424
03:00+3зсз61196100 0.1 1014453
06:00+3зсз61196100 0.8 1013522
09:00+2з61096100 1.5 1014542
12:00+3з51096100 0.1 1015548
15:00+3з51096100 0.1 1016583
18:00+3з51097100 0.0 1016531
21:00+3з5997100 0.0 1018533
17 апреля, сб
сб1700:00+2зюз4797100 0.0 1018422
03:00+2зюз3698100 0.2 1018398
06:00+2юз3599100 0.3 1019350
09:00+2юз3498100 0.7 1020373
12:00+3юз2497100 0.2 1022454
15:00+4ююз1294100 0.3 1022318
18:00+6вюв118277 0.0 1022472
21:00+3в339323 0.0 102333
18 апреля, вс
вс1800:00+2в339421 0.0 102341
03:00+2всв339238 0.0 102338
06:00+2в2290100 0.0 102316
09:00+6в227698 0.0 1023202
12:00+11в225884 0.0 1022892
15:00+13в345038 0.0 10211465
18:00+14вюв465415 0.0 10201608
21:00+8вюв367493 0.0 102188